CZ-6A DEB, 61393

Orbit data source: Space-Track

CZ-6A DEB, 61393 is space debris in LEO originally from a launch on Tue, 06 Aug 2024 UTC launched from the Taiyaun Space Center, China (TSC). Debris objects in space refer to the collection of defunct objects orbiting the Earth. Examples of debris include non-operational satellites, rocket bodies, and fragments generated from explosions, collisions, or faulty payload assembly.

Loading next visibility...
Identifier
61393, 2024-140XJ
Orbit
LEO
Country
Flag of CNCN / PRC
Related business
Manufacturer
SAST
Mission
Spacecraft
Bus & Motor
Unknown
Mass
Unknown
Launch date (UTC)
2024-08-06 (2 years ago)
Launch vehicle
Unknown
Launch site
Taiyaun Space Center, China (TSC)
Object type
Payload
Rocket body
Debris
Shape & HBR
Unknown shape, 0.1 m
Radar Cross Section
Medium (>0.1 m² and <1 m²)

Expand to show TLE details & history
Last TLE update: 17 hours ago

TLE from 17 hours ago
0 CZ-6A DEB
1 61393U 24140XJ  26171.28283365  .00002347  00000-0  11688-2 0  9999
2 61393  88.9939 274.8355 0085703 211.0155 148.5957 14.14789177 92157
Epoch: 2026-06-20T06:47Z
TLE epoch observation values (Epoch: 2026-06-20T06:47:16.827Z)
Latitude
-0.00002°
Longitude
-95.4843°
Altitude
899.05 km
Speed
7.375 km/s
True Right ascension
18h 19m 20s
True Declination
0° 00' 00"
Sunlit
Object was in full shadow at epoch
Visualization orbit readout
Latitude
Unknown
Longitude
Unknown
Altitude
Unknown
Speed
Unknown
Apparent Right ascension
Unknown
Apparent Declination
Unknown
Sunlit
N/A
Visualization observer readout
Local Sidereal Time
10:18:09
Azimuth
Unknown
Elevation
Unknown
Doppler factor
Unknown
Orbital elements
Apogee altitude
901.849 km
Perigee altitude
778.126 km
Semi-major axis
7,218.125 km
Eccentricity
0.00857
Inclination
88.9939°
RAAN
274.8355°
Arg. of periapsis
211.0155°
True anomaly
149.10279°
Mean anomaly
148.5957°
Eccentric anomaly
148.84971°
Mean motion
3.53921 °/min
Orbital period
101.72 mins
BSTAR
0.0011688
Loading maneuver chart data...
Computing Atmospheric mass density...
Loading historical data...
Loading historical data...
Loading historical data...
Loading historical data...
Loading historical data...
Loading historical data...
Loading historical data...

Documentation

Showing up to 5 results
|